Time,TemperatureF,DewpointF,PressureIn,WindDirection,WindDirectionDegrees,WindSpeedMPH,WindSpeedGustMPH,Humidity,HourlyPrecipIn,Conditions,Clouds,dailyrainin,SoftwareType,DateUTC
2014-10-25 00:00:00,48.8,43.9,30.04,WSW,242,0.0,0.0,83,0.00,,,0.00,VWS V15.00,2014-10-25 04:00:00,
2014-10-25 00:05:00,48.7,44.1,30.04,WSW,242,0.0,0.0,84,0.00,,,0.00,VWS V15.00,2014-10-25 04:05:00,
2014-10-25 00:10:00,48.7,44.1,30.04,WSW,242,0.0,0.0,84,0.00,,,0.00,VWS V15.00,2014-10-25 04:10:00,
2014-10-25 00:15:00,48.7,44.1,30.04,WSW,242,0.0,0.0,84,0.00,,,0.00,VWS V15.00,2014-10-25 04:15:00,
2014-10-25 00:20:00,48.8,44.2,30.04,WSW,242,0.0,0.0,84,0.00,,,0.00,VWS V15.00,2014-10-25 04:20:00,
2014-10-25 00:25:00,48.8,43.9,30.04,WSW,242,0.0,0.0,83,0.00,,,0.00,VWS V15.00,2014-10-25 04:25:00,
2014-10-25 00:30:00,48.9,44.3,30.03,WSW,242,0.0,0.0,84,0.00,,,0.00,VWS V15.00,2014-10-25 04:30:00,
2014-10-25 00:35:00,49.0,44.1,30.04,WSW,242,0.0,0.0,83,0.00,,,0.00,VWS V15.00,2014-10-25 04:35:00,
2014-10-25 00:40:00,49.1,44.2,30.04,WSW,242,0.0,0.0,83,0.00,,,0.00,VWS V15.00,2014-10-25 04:40:00,
2014-10-25 00:45:00,49.2,44.3,30.04,WSW,242,0.0,0.0,83,0.00,,,0.00,VWS V15.00,2014-10-25 04:45:00,
2014-10-25 00:50:00,49.2,44.3,30.04,WSW,242,0.0,0.0,83,0.00,,,0.00,VWS V15.00,2014-10-25 04:50:00,
2014-10-25 00:55:00,49.2,44.3,30.04,WSW,242,0.0,0.0,83,0.00,,,0.00,VWS V15.00,2014-10-25 04:55:00,
2014-10-25 01:00:00,49.2,44.3,30.04,WSW,242,0.0,0.0,83,0.00,,,0.00,VWS V15.00,2014-10-25 05:00:00,
2014-10-25 01:05:00,49.2,44.3,30.03,WSW,242,0.0,0.0,83,0.00,,,0.00,VWS V15.00,2014-10-25 05:05:00,
2014-10-25 01:10:00,49.0,44.1,30.03,WSW,242,0.0,0.0,83,0.00,,,0.00,VWS V15.00,2014-10-25 05:10:00,
2014-10-25 01:15:00,48.8,44.2,30.03,WSW,242,0.0,0.0,84,0.00,,,0.00,VWS V15.00,2014-10-25 05:15:00,
2014-10-25 01:20:00,48.7,44.1,30.03,WSW,242,0.0,0.0,84,0.00,,,0.00,VWS V15.00,2014-10-25 05:20:00,
2014-10-25 01:25:00,48.7,44.4,30.03,WSW,242,0.0,0.0,85,0.00,,,0.00,VWS V15.00,2014-10-25 05:25:00,
2014-10-25 01:30:00,48.8,44.5,30.02,WSW,242,0.0,0.0,85,0.00,,,0.00,VWS V15.00,2014-10-25 05:30:00,
2014-10-25 01:35:00,48.9,44.6,30.03,WSW,242,0.0,0.0,85,0.00,,,0.00,VWS V15.00,2014-10-25 05:35:00,
2014-10-25 01:40:00,48.9,44.6,30.03,WSW,242,0.0,0.0,85,0.00,,,0.00,VWS V15.00,2014-10-25 05:40:00,
2014-10-25 01:45:00,48.8,44.5,30.02,WSW,242,0.0,0.0,85,0.00,,,0.00,VWS V15.00,2014-10-25 05:45:00,
2014-10-25 01:50:00,48.7,44.4,30.02,WSW,242,0.0,0.0,85,0.00,,,0.00,VWS V15.00,2014-10-25 05:50:00,
2014-10-25 01:55:00,48.5,44.2,30.02,WSW,242,0.0,0.0,85,0.00,,,0.00,VWS V15.00,2014-10-25 05:55:00,
2014-10-25 02:00:00,48.3,44.3,30.02,WSW,242,0.0,0.0,86,0.00,,,0.00,VWS V15.00,2014-10-25 06:00:00,
2014-10-25 02:05:00,48.2,44.5,30.02,WSW,242,0.0,0.0,87,0.00,,,0.00,VWS V15.00,2014-10-25 06:05:00,
2014-10-25 02:10:00,48.2,45.7,30.02,WSW,242,0.0,0.0,91,0.00,,,0.00,VWS V15.00,2014-10-25 06:10:00,
2014-10-25 02:15:00,48.1,44.4,30.02,WSW,242,0.0,0.0,87,0.00,,,0.00,VWS V15.00,2014-10-25 06:15:00,
2014-10-25 02:20:00,48.1,44.4,30.02,WSW,242,0.0,0.0,87,0.00,,,0.00,VWS V15.00,2014-10-25 06:20:00,
2014-10-25 02:25:00,48.0,44.3,30.02,WSW,242,0.0,0.0,87,0.00,,,0.00,VWS V15.00,2014-10-25 06:25:00,
2014-10-25 02:30:00,47.9,44.2,30.02,WSW,242,0.0,0.0,87,0.00,,,0.00,VWS V15.00,2014-10-25 06:30:00,
2014-10-25 02:35:00,47.8,44.1,30.02,WSW,242,0.0,0.0,87,0.00,,,0.00,VWS V15.00,2014-10-25 06:35:00,
2014-10-25 02:40:00,47.6,44.2,30.02,WSW,242,0.0,0.0,88,0.00,,,0.00,VWS V15.00,2014-10-25 06:40:00,
2014-10-25 02:45:00,47.5,44.1,30.02,WSW,242,0.0,0.0,88,0.00,,,0.00,VWS V15.00,2014-10-25 06:45:00,
2014-10-25 02:50:00,47.4,44.0,30.02,WSW,242,0.0,0.0,88,0.00,,,0.00,VWS V15.00,2014-10-25 06:50:00,
2014-10-25 02:55:00,47.4,44.0,30.02,WSW,242,0.0,0.0,88,0.00,,,0.00,VWS V15.00,2014-10-25 06:55:00,
2014-10-25 03:00:00,47.3,43.9,30.02,WSW,242,0.0,0.0,88,0.00,,,0.00,VWS V15.00,2014-10-25 07:00:00,
2014-10-25 03:05:00,47.2,44.1,30.02,WSW,242,0.0,0.0,89,0.00,,,0.00,VWS V15.00,2014-10-25 07:05:00,
2014-10-25 03:10:00,47.2,44.1,30.02,WSW,242,0.0,0.0,89,0.00,,,0.00,VWS V15.00,2014-10-25 07:10:00,
2014-10-25 03:15:00,47.2,44.1,30.03,WSW,242,0.0,0.0,89,0.00,,,0.00,VWS V15.00,2014-10-25 07:15:00,
2014-10-25 03:20:00,47.2,44.1,30.03,WSW,242,0.0,0.0,89,0.00,,,0.00,VWS V15.00,2014-10-25 07:20:00,
2014-10-25 03:25:00,47.2,44.4,30.03,WSW,242,0.0,0.0,90,0.00,,,0.00,VWS V15.00,2014-10-25 07:25:00,
2014-10-25 03:30:00,47.3,44.5,30.03,WSW,242,0.0,0.0,90,0.00,,,0.00,VWS V15.00,2014-10-25 07:30:00,
2014-10-25 03:35:00,47.4,44.6,30.02,WSW,242,0.0,0.0,90,0.00,,,0.00,VWS V15.00,2014-10-25 07:35:00,
2014-10-25 03:40:00,47.4,44.6,30.02,WSW,242,0.0,0.0,90,0.00,,,0.00,VWS V15.00,2014-10-25 07:40:00,
2014-10-25 03:45:00,47.5,44.7,30.02,WSW,242,0.0,0.0,90,0.00,,,0.00,VWS V15.00,2014-10-25 07:45:00,
2014-10-25 03:50:00,47.4,44.6,30.02,WSW,242,0.0,0.0,90,0.00,,,0.00,VWS V15.00,2014-10-25 07:50:00,
2014-10-25 03:55:00,47.3,44.5,30.01,WSW,242,0.0,0.0,90,0.00,,,0.00,VWS V15.00,2014-10-25 07:55:00,
2014-10-25 04:00:00,47.2,44.4,30.01,WSW,242,0.0,0.0,90,0.00,,,0.00,VWS V15.00,2014-10-25 08:00:00,
2014-10-25 04:05:00,47.0,44.2,30.01,WSW,242,0.0,0.0,90,0.00,,,0.00,VWS V15.00,2014-10-25 08:05:00,
2014-10-25 04:10:00,46.9,44.4,30.01,WSW,242,0.0,0.0,91,0.00,,,0.00,VWS V15.00,2014-10-25 08:10:00,
2014-10-25 04:15:00,46.8,44.3,30.00,WSW,242,0.0,0.0,91,0.00,,,0.00,VWS V15.00,2014-10-25 08:15:00,
2014-10-25 04:20:00,46.9,44.7,30.01,WSW,242,0.0,0.0,92,0.00,,,0.00,VWS V15.00,2014-10-25 08:20:00,
2014-10-25 04:25:00,47.0,44.8,30.00,WSW,242,0.0,0.0,92,0.00,,,0.00,VWS V15.00,2014-10-25 08:25:00,
2014-10-25 04:30:00,47.3,45.1,30.00,WSW,242,0.0,0.0,92,0.00,,,0.00,VWS V15.00,2014-10-25 08:30:00,
2014-10-25 04:35:00,47.4,45.2,30.00,WSW,242,0.0,0.0,92,0.00,,,0.00,VWS V15.00,2014-10-25 08:35:00,
2014-10-25 04:40:00,47.5,45.0,30.00,WSW,242,0.0,0.0,91,0.00,,,0.00,VWS V15.00,2014-10-25 08:40:00,
2014-10-25 04:45:00,47.6,45.1,30.00,WSW,242,0.0,0.0,91,0.00,,,0.00,VWS V15.00,2014-10-25 08:45:00,
2014-10-25 04:50:00,47.6,45.1,30.00,WSW,242,0.0,0.0,91,0.00,,,0.00,VWS V15.00,2014-10-25 08:50:00,
2014-10-25 04:55:00,47.6,45.1,30.00,WSW,242,0.0,0.0,91,0.00,,,0.00,VWS V15.00,2014-10-25 08:55:00,
2014-10-25 05:00:00,47.5,45.0,30.00,WSW,242,0.0,0.0,91,0.00,,,0.00,VWS V15.00,2014-10-25 09:00:00,
2014-10-25 05:05:00,47.3,44.8,30.00,WSW,242,0.0,1.0,91,0.00,,,0.00,VWS V15.00,2014-10-25 09:05:00,
2014-10-25 05:10:00,47.2,44.7,30.00,WSW,242,0.0,0.0,91,0.00,,,0.00,VWS V15.00,2014-10-25 09:10:00,
2014-10-25 05:15:00,47.5,45.3,29.99,WSW,242,0.0,0.0,92,0.00,,,0.00,VWS V15.00,2014-10-25 09:15:00,
2014-10-25 05:20:00,47.6,45.4,30.00,WSW,242,0.0,0.0,92,0.00,,,0.00,VWS V15.00,2014-10-25 09:20:00,
2014-10-25 05:25:00,47.8,45.6,30.00,WSW,242,0.0,0.0,92,0.00,,,0.00,VWS V15.00,2014-10-25 09:25:00,
2014-10-25 05:30:00,47.8,45.6,29.99,WSW,242,0.0,0.0,92,0.00,,,0.00,VWS V15.00,2014-10-25 09:30:00,
2014-10-25 05:35:00,47.8,45.6,29.98,WSW,242,0.0,0.0,92,0.00,,,0.00,VWS V15.00,2014-10-25 09:35:00,
2014-10-25 05:40:00,47.6,45.4,29.98,WSW,242,0.0,0.0,92,0.00,,,0.00,VWS V15.00,2014-10-25 09:40:00,
2014-10-25 05:45:00,47.5,45.3,29.99,WSW,242,0.0,0.0,92,0.00,,,0.00,VWS V15.00,2014-10-25 09:45:00,
2014-10-25 05:50:00,47.3,45.1,29.99,WSW,242,0.0,0.0,92,0.00,,,0.00,VWS V15.00,2014-10-25 09:50:00,
2014-10-25 05:55:00,47.2,45.0,29.99,WSW,242,0.0,0.0,92,0.00,,,0.00,VWS V15.00,2014-10-25 09:55:00,
2014-10-25 06:00:00,47.1,44.9,29.99,WSW,242,0.0,0.0,92,0.00,,,0.00,VWS V15.00,2014-10-25 10:00:00,
2014-10-25 06:05:00,47.1,44.9,29.99,WSW,242,0.0,0.0,92,0.00,,,0.00,VWS V15.00,2014-10-25 10:05:00,
2014-10-25 06:10:00,47.2,45.3,30.00,WSW,242,0.0,0.0,93,0.00,,,0.00,VWS V15.00,2014-10-25 10:10:00,
2014-10-25 06:15:00,47.5,45.6,30.00,WSW,242,0.0,0.0,93,0.00,,,0.00,VWS V15.00,2014-10-25 10:15:00,
2014-10-25 06:20:00,47.7,45.5,30.00,WSW,242,0.0,0.0,92,0.00,,,0.00,VWS V15.00,2014-10-25 10:20:00,
2014-10-25 06:25:00,47.6,45.4,30.00,WSW,242,0.0,0.0,92,0.00,,,0.00,VWS V15.00,2014-10-25 10:25:00,
2014-10-25 06:30:00,47.5,45.3,30.00,WSW,242,0.0,0.0,92,0.00,,,0.00,VWS V15.00,2014-10-25 10:30:00,
2014-10-25 06:35:00,47.4,45.2,30.00,WSW,242,0.0,0.0,92,0.00,,,0.00,VWS V15.00,2014-10-25 10:35:00,
2014-10-25 06:40:00,47.2,45.0,30.00,WSW,242,0.0,0.0,92,0.00,,,0.00,VWS V15.00,2014-10-25 10:40:00,
2014-10-25 06:45:00,47.0,44.8,30.00,WSW,242,0.0,0.0,92,0.00,,,0.00,VWS V15.00,2014-10-25 10:45:00,
2014-10-25 06:50:00,46.8,44.6,29.99,WSW,242,0.0,0.0,92,0.00,,,0.00,VWS V15.00,2014-10-25 10:50:00,
2014-10-25 06:55:00,46.7,44.8,29.99,WSW,242,0.0,1.0,93,0.00,,,0.00,VWS V15.00,2014-10-25 10:55:00,
2014-10-25 07:00:00,46.6,44.7,30.00,WSW,242,0.0,0.0,93,0.00,,,0.00,VWS V15.00,2014-10-25 11:00:00,
2014-10-25 07:05:00,46.7,44.8,29.99,WSW,242,0.0,0.0,93,0.00,,,0.00,VWS V15.00,2014-10-25 11:05:00,
2014-10-25 07:10:00,46.9,45.3,29.99,WSW,242,0.0,0.0,94,0.00,,,0.00,VWS V15.00,2014-10-25 11:10:00,
2014-10-25 07:15:00,47.0,45.4,29.99,WSW,242,0.0,0.0,94,0.00,,,0.00,VWS V15.00,2014-10-25 11:15:00,
2014-10-25 07:20:00,47.4,45.8,29.99,WSW,242,0.0,0.0,94,0.00,,,0.00,VWS V15.00,2014-10-25 11:20:00,
2014-10-25 07:25:00,47.7,46.1,29.99,WSW,242,0.0,0.0,94,0.00,,,0.00,VWS V15.00,2014-10-25 11:25:00,
2014-10-25 07:30:00,48.0,46.4,29.98,WSW,242,0.0,0.0,94,0.00,,,0.00,VWS V15.00,2014-10-25 11:30:00,
2014-10-25 07:35:00,48.2,46.6,29.98,WSW,242,0.0,0.0,94,0.00,,,0.00,VWS V15.00,2014-10-25 11:35:00,
2014-10-25 07:40:00,48.4,46.8,29.98,WSW,242,0.0,0.0,94,0.00,,,0.00,VWS V15.00,2014-10-25 11:40:00,
2014-10-25 07:45:00,48.7,47.0,29.99,WSW,242,0.0,1.0,94,0.00,,,0.00,VWS V15.00,2014-10-25 11:45:00,
2014-10-25 07:50:00,49.0,47.3,29.98,WSW,242,0.0,0.0,94,0.00,,,0.00,VWS V15.00,2014-10-25 11:50:00,
2014-10-25 07:55:00,49.1,47.2,29.98,WSW,242,0.0,0.0,93,0.00,,,0.00,VWS V15.00,2014-10-25 11:55:00,
2014-10-25 08:00:00,49.2,47.0,29.98,WSW,242,0.0,0.0,92,0.00,,,0.00,VWS V15.00,2014-10-25 12:00:00,
2014-10-25 08:05:00,49.4,47.2,29.98,WSW,242,0.0,1.0,92,0.00,,,0.00,VWS V15.00,2014-10-25 12:05:00,
2014-10-25 08:10:00,49.6,47.4,29.98,WSW,242,0.0,0.0,92,0.00,,,0.00,VWS V15.00,2014-10-25 12:10:00,
2014-10-25 08:15:00,49.9,47.7,29.98,WSW,242,0.0,2.0,92,0.00,,,0.00,VWS V15.00,2014-10-25 12:15:00,
2014-10-25 08:20:00,50.1,47.9,29.98,WSW,242,0.0,0.0,92,0.00,,,0.00,VWS V15.00,2014-10-25 12:20:00,
2014-10-25 08:25:00,50.3,48.1,29.98,WSW,242,0.0,0.0,92,0.00,,,0.00,VWS V15.00,2014-10-25 12:25:00,
2014-10-25 08:30:00,50.6,48.1,29.98,WSW,242,0.0,0.0,91,0.00,,,0.00,VWS V15.00,2014-10-25 12:30:00,
2014-10-25 08:35:00,50.8,48.3,29.98,WSW,242,0.0,1.0,91,0.00,,,0.00,VWS V15.00,2014-10-25 12:35:00,
2014-10-25 08:40:00,51.1,48.6,29.98,WSW,242,3.0,3.0,91,0.00,,,0.00,VWS V15.00,2014-10-25 12:40:00,
2014-10-25 08:45:00,51.4,48.9,29.98,WSW,242,0.0,3.0,91,0.00,,,0.00,VWS V15.00,2014-10-25 12:45:00,
2014-10-25 08:50:00,51.6,49.1,29.98,WSW,242,0.0,0.0,91,0.00,,,0.00,VWS V15.00,2014-10-25 12:50:00,
2014-10-25 08:55:00,51.9,49.4,29.98,WSW,242,0.0,3.0,91,0.00,,,0.00,VWS V15.00,2014-10-25 12:55:00,
2014-10-25 09:00:00,52.2,49.7,29.98,WSW,242,4.0,5.0,91,0.00,,,0.00,VWS V15.00,2014-10-25 13:00:00,
2014-10-25 09:05:00,52.5,50.0,29.99,WSW,242,0.0,5.0,91,0.00,,,0.00,VWS V15.00,2014-10-25 13:05:00,
2014-10-25 09:10:00,52.7,49.8,29.99,WSW,241,0.0,4.0,90,0.00,,,0.00,VWS V15.00,2014-10-25 13:10:00,
2014-10-25 09:15:00,52.8,50.0,29.99,WSW,244,1.0,4.0,90,0.00,,,0.00,VWS V15.00,2014-10-25 13:15:00,
2014-10-25 09:19:00,53.0,50.2,29.99,WSW,244,0.0,0.0,90,0.00,,,0.00,VWS V15.00,2014-10-25 13:19:00,
2014-10-25 09:24:00,53.1,50.2,29.99,WSW,244,0.0,1.0,90,0.00,,,0.00,VWS V15.00,2014-10-25 13:24:00,
2014-10-25 09:30:00,53.2,50.3,29.99,WSW,237,0.0,1.0,90,0.00,,,0.00,VWS V15.00,2014-10-25 13:30:00,
2014-10-25 09:34:00,53.3,50.2,29.99,WSW,238,0.0,5.0,89,0.00,,,0.00,VWS V15.00,2014-10-25 13:34:00,
2014-10-25 09:39:00,53.4,50.2,29.99,WSW,240,3.0,3.0,89,0.00,,,0.00,VWS V15.00,2014-10-25 13:39:00,
2014-10-25 09:44:00,53.5,50.3,29.98,SW,232,0.0,3.0,89,0.00,,,0.00,VWS V15.00,2014-10-25 13:44:00,
2014-10-25 09:49:00,53.6,50.4,29.98,SW,232,1.0,2.0,89,0.00,,,0.00,VWS V15.00,2014-10-25 13:49:00,
2014-10-25 09:54:00,53.8,50.6,29.99,SW,232,0.0,4.0,89,0.00,,,0.00,VWS V15.00,2014-10-25 13:54:00,
2014-10-25 09:59:00,54.0,51.7,29.99,SW,227,0.0,1.0,92,0.00,,,0.00,VWS V15.00,2014-10-25 13:59:00,
2014-10-25 10:04:00,54.2,51.0,29.98,SW,226,0.0,3.0,89,0.00,,,0.00,VWS V15.00,2014-10-25 14:04:00,
2014-10-25 10:09:00,54.4,50.9,29.98,WSW,248,3.0,3.0,88,0.00,,,0.00,VWS V15.00,2014-10-25 14:09:00,
2014-10-25 10:14:00,54.6,51.4,29.98,WSW,242,1.0,4.0,89,0.00,,,0.00,VWS V15.00,2014-10-25 14:14:00,
2014-10-25 10:19:00,54.8,51.3,29.98,West,265,0.0,4.0,88,0.00,,,0.00,VWS V15.00,2014-10-25 14:19:00,
2014-10-25 10:24:00,55.1,51.6,29.98,WSW,239,0.0,6.0,88,0.00,,,0.00,VWS V15.00,2014-10-25 14:24:00,
2014-10-25 10:29:00,55.4,51.6,29.98,WSW,242,5.0,7.0,87,0.00,,,0.00,VWS V15.00,2014-10-25 14:29:00,
2014-10-25 10:34:00,55.7,51.6,29.99,WSW,239,2.0,8.0,86,0.00,,,0.00,VWS V15.00,2014-10-25 14:34:00,
2014-10-25 10:39:00,55.8,51.7,29.99,WSW,251,4.0,4.0,86,0.00,,,0.00,VWS V15.00,2014-10-25 14:39:00,
2014-10-25 10:44:00,56.1,52.0,29.99,SW,230,3.0,6.0,86,0.00,,,0.00,VWS V15.00,2014-10-25 14:44:00,
2014-10-25 10:49:00,56.4,52.3,29.99,WSW,246,6.0,6.0,86,0.00,,,0.00,VWS V15.00,2014-10-25 14:49:00,
2014-10-25 10:54:00,56.6,52.5,29.98,WSW,243,0.0,6.0,86,0.00,,,0.00,VWS V15.00,2014-10-25 14:54:00,
2014-10-25 10:59:00,56.9,52.4,29.98,WSW,245,6.0,6.0,85,0.00,,,0.00,VWS V15.00,2014-10-25 14:59:00,
2014-10-25 11:04:00,57.4,52.9,29.98,SW,235,0.0,6.0,85,0.00,,,0.00,VWS V15.00,2014-10-25 15:04:00,
2014-10-25 11:09:00,57.8,53.0,29.98,WSW,253,3.0,3.0,84,0.00,,,0.00,VWS V15.00,2014-10-25 15:09:00,
2014-10-25 11:14:00,58.1,53.3,29.98,SW,236,0.0,6.0,84,0.00,,,0.00,VWS V15.00,2014-10-25 15:14:00,
2014-10-25 11:19:00,58.7,53.9,29.98,SW,234,0.0,0.0,84,0.00,,,0.00,VWS V15.00,2014-10-25 15:19:00,
2014-10-25 11:24:00,59.1,54.0,29.98,SW,229,1.0,6.0,83,0.00,,,0.00,VWS V15.00,2014-10-25 15:24:00,
2014-10-25 11:29:00,59.5,54.3,29.97,SW,230,0.0,0.0,83,0.00,,,0.00,VWS V15.00,2014-10-25 15:29:00,
2014-10-25 11:34:00,60.1,54.6,29.98,South,175,0.0,4.0,82,0.00,,,0.00,VWS V15.00,2014-10-25 15:34:00,
2014-10-25 11:39:00,60.5,55.0,29.98,SW,232,1.0,1.0,82,0.00,,,0.00,VWS V15.00,2014-10-25 15:39:00,
2014-10-25 11:44:00,61.3,55.4,29.98,WNW,302,0.0,5.0,81,0.00,,,0.00,VWS V15.00,2014-10-25 15:44:00,
2014-10-25 11:49:00,61.7,55.5,29.98,SW,219,5.0,5.0,80,0.00,,,0.00,VWS V15.00,2014-10-25 15:49:00,
2014-10-25 11:54:00,61.8,55.6,29.97,SW,220,2.0,6.0,80,0.00,,,0.00,VWS V15.00,2014-10-25 15:54:00,
2014-10-25 11:59:00,61.9,55.7,29.97,WSW,242,0.0,0.0,80,0.00,,,0.00,VWS V15.00,2014-10-25 15:59:00,
2014-10-25 12:04:00,61.9,55.7,29.97,SW,232,1.0,6.0,80,0.00,,,0.00,VWS V15.00,2014-10-25 16:04:00,
2014-10-25 12:09:00,62.0,55.8,29.97,WSW,253,0.0,0.0,80,0.00,,,0.00,VWS V15.00,2014-10-25 16:09:00,
2014-10-25 12:14:00,62.3,56.4,29.96,SW,234,0.0,5.0,81,0.00,,,0.00,VWS V15.00,2014-10-25 16:14:00,
2014-10-25 12:19:00,62.5,55.9,29.96,SW,234,6.0,6.0,79,0.00,,,0.00,VWS V15.00,2014-10-25 16:19:00,
2014-10-25 12:24:00,62.6,56.3,29.96,WSW,239,4.0,7.0,80,0.00,,,0.00,VWS V15.00,2014-10-25 16:24:00,
2014-10-25 12:29:00,62.7,56.5,29.96,WSW,238,3.0,4.0,80,0.00,,,0.00,VWS V15.00,2014-10-25 16:29:00,
2014-10-25 12:34:00,63.0,56.7,29.95,WSW,252,1.0,6.0,80,0.00,,,0.00,VWS V15.00,2014-10-25 16:34:00,
2014-10-25 12:39:00,63.4,57.1,29.95,SW,232,0.0,0.0,80,0.00,,,0.00,VWS V15.00,2014-10-25 16:39:00,
2014-10-25 12:44:00,63.9,57.3,29.95,SW,221,0.0,3.0,79,0.00,,,0.00,VWS V15.00,2014-10-25 16:44:00,
2014-10-25 12:49:00,64.3,57.3,29.95,WSW,251,4.0,5.0,78,0.00,,,0.00,VWS V15.00,2014-10-25 16:49:00,
2014-10-25 12:54:00,64.2,57.2,29.95,WSW,252,4.0,6.0,78,0.00,,,0.00,VWS V15.00,2014-10-25 16:54:00,
2014-10-25 12:59:00,64.3,57.3,29.95,WNW,288,0.0,0.0,78,0.00,,,0.00,VWS V15.00,2014-10-25 16:59:00,
2014-10-25 13:04:00,64.5,57.5,29.94,NW,313,3.0,9.0,78,0.00,,,0.00,VWS V15.00,2014-10-25 17:04:00,
2014-10-25 13:09:00,64.5,57.8,29.94,WSW,248,0.0,0.0,79,0.00,,,0.00,VWS V15.00,2014-10-25 17:09:00,
2014-10-25 13:14:00,64.9,57.9,29.94,WSW,238,4.0,6.0,78,0.00,,,0.00,VWS V15.00,2014-10-25 17:14:00,
2014-10-25 13:19:00,65.1,58.1,29.93,West,263,5.0,5.0,78,0.00,,,0.00,VWS V15.00,2014-10-25 17:19:00,
2014-10-25 13:24:00,65.3,58.3,29.93,SW,225,0.0,7.0,78,0.00,,,0.00,VWS V15.00,2014-10-25 17:24:00,
2014-10-25 13:29:00,65.4,58.4,29.93,SW,234,3.0,8.0,78,0.00,,,0.00,VWS V15.00,2014-10-25 17:29:00,
2014-10-25 13:34:00,65.8,58.8,29.93,SSW,208,1.0,6.0,78,0.00,,,0.00,VWS V15.00,2014-10-25 17:34:00,
2014-10-25 13:39:00,66.5,59.4,29.93,WSW,239,0.0,7.0,78,0.00,,,0.00,VWS V15.00,2014-10-25 17:39:00,
2014-10-25 13:44:00,66.8,59.4,29.93,West,264,1.0,8.0,77,0.00,,,0.00,VWS V15.00,2014-10-25 17:44:00,
2014-10-25 13:49:00,67.3,59.5,29.93,WNW,286,0.0,8.0,76,0.00,,,0.00,VWS V15.00,2014-10-25 17:49:00,
2014-10-25 13:54:00,67.7,59.5,29.93,WSW,251,0.0,8.0,75,0.00,,,0.00,VWS V15.00,2014-10-25 17:54:00,
2014-10-25 13:59:00,68.2,60.3,29.93,WSW,250,0.0,8.0,76,0.00,,,0.00,VWS V15.00,2014-10-25 17:59:00,
2014-10-25 14:04:00,68.6,60.0,29.93,WSW,258,6.0,8.0,74,0.00,,,0.00,VWS V15.00,2014-10-25 18:04:00,
2014-10-25 14:09:00,68.8,60.2,29.92,SW,231,1.0,8.0,74,0.00,,,0.00,VWS V15.00,2014-10-25 18:09:00,
2014-10-25 14:14:00,69.0,60.0,29.92,SSW,208,1.0,7.0,73,0.00,,,0.00,VWS V15.00,2014-10-25 18:14:00,
2014-10-25 14:19:00,69.1,60.5,29.92,SW,220,6.0,7.0,74,0.00,,,0.00,VWS V15.00,2014-10-25 18:19:00,
2014-10-25 14:24:00,69.4,60.8,29.92,NW,309,1.0,6.0,74,0.00,,,0.00,VWS V15.00,2014-10-25 18:24:00,
2014-10-25 14:29:00,69.7,60.7,29.91,SW,229,5.0,6.0,73,0.00,,,0.00,VWS V15.00,2014-10-25 18:29:00,
2014-10-25 14:34:00,70.0,60.2,29.91,SW,220,4.0,8.0,71,0.00,,,0.00,VWS V15.00,2014-10-25 18:34:00,
2014-10-25 14:39:00,70.2,60.4,29.91,WSW,240,3.0,8.0,71,0.00,,,0.00,VWS V15.00,2014-10-25 18:39:00,
2014-10-25 14:44:00,70.3,60.5,29.91,WSW,245,3.0,9.0,71,0.00,,,0.00,VWS V15.00,2014-10-25 18:44:00,
2014-10-25 14:49:00,70.6,60.0,29.90,WSW,237,1.0,9.0,69,0.00,,,0.00,VWS V15.00,2014-10-25 18:49:00,
2014-10-25 14:54:00,70.8,60.5,29.91,WSW,248,2.0,6.0,70,0.00,,,0.00,VWS V15.00,2014-10-25 18:54:00,
2014-10-25 14:59:00,71.2,61.3,29.91,WSW,244,1.0,6.0,71,0.00,,,0.00,VWS V15.00,2014-10-25 18:59:00,
2014-10-25 15:04:00,71.7,61.0,29.91,WSW,243,2.0,8.0,69,0.00,,,0.00,VWS V15.00,2014-10-25 19:04:00,
2014-10-25 15:09:00,71.9,61.2,29.91,South,190,5.0,8.0,69,0.00,,,0.00,VWS V15.00,2014-10-25 19:09:00,
2014-10-25 15:14:00,72.2,60.7,29.90,WSW,257,3.0,7.0,67,0.00,,,0.00,VWS V15.00,2014-10-25 19:14:00,
2014-10-25 15:19:00,72.6,61.0,29.90,SW,221,0.0,7.0,67,0.00,,,0.00,VWS V15.00,2014-10-25 19:19:00,
2014-10-25 15:24:00,72.8,60.4,29.90,West,277,0.0,6.0,65,0.00,,,0.00,VWS V15.00,2014-10-25 19:24:00,
2014-10-25 15:29:00,72.9,60.5,29.90,WSW,242,0.0,6.0,65,0.00,,,0.00,VWS V15.00,2014-10-25 19:29:00,
2014-10-25 15:34:00,73.2,60.7,29.90,WSW,254,3.0,6.0,65,0.00,,,0.00,VWS V15.00,2014-10-25 19:34:00,
2014-10-25 15:39:00,73.4,60.0,29.90,NW,311,6.0,6.0,63,0.00,,,0.00,VWS V15.00,2014-10-25 19:39:00,
2014-10-25 15:44:00,73.5,60.2,29.90,WSW,243,0.0,9.0,63,0.00,,,0.00,VWS V15.00,2014-10-25 19:44:00,
2014-10-25 15:49:00,73.7,59.9,29.90,SW,227,0.0,9.0,62,0.00,,,0.00,VWS V15.00,2014-10-25 19:49:00,
2014-10-25 15:54:00,74.2,59.9,29.90,WSW,244,0.0,6.0,61,0.00,,,0.00,VWS V15.00,2014-10-25 19:54:00,
2014-10-25 15:59:00,74.4,59.6,29.90,West,275,1.0,6.0,60,0.00,,,0.00,VWS V15.00,2014-10-25 19:59:00,
2014-10-25 16:04:00,74.6,60.3,29.90,WSW,250,2.0,5.0,61,0.00,,,0.00,VWS V15.00,2014-10-25 20:04:00,
2014-10-25 16:09:00,74.4,59.6,29.90,NNW,340,1.0,9.0,60,0.00,,,0.00,VWS V15.00,2014-10-25 20:09:00,
2014-10-25 16:14:00,74.4,59.2,29.90,West,281,0.0,11.0,59,0.00,,,0.00,VWS V15.00,2014-10-25 20:14:00,
2014-10-25 16:19:00,74.5,59.7,29.90,NW,304,4.0,11.0,60,0.00,,,0.00,VWS V15.00,2014-10-25 20:19:00,
2014-10-25 16:24:00,74.8,59.5,29.90,SW,228,0.0,3.0,59,0.00,,,0.00,VWS V15.00,2014-10-25 20:24:00,
2014-10-25 16:29:00,75.1,59.3,29.90,SW,226,1.0,5.0,58,0.00,,,0.00,VWS V15.00,2014-10-25 20:29:00,
2014-10-25 16:34:00,75.0,58.8,29.90,WNW,296,0.0,6.0,57,0.00,,,0.00,VWS V15.00,2014-10-25 20:34:00,
2014-10-25 16:39:00,75.2,59.4,29.90,West,261,1.0,6.0,58,0.00,,,0.00,VWS V15.00,2014-10-25 20:39:00,
2014-10-25 16:44:00,75.1,59.3,29.90,North,360,1.0,9.0,58,0.00,,,0.00,VWS V15.00,2014-10-25 20:44:00,
2014-10-25 16:49:00,75.0,58.3,29.90,SW,236,0.0,9.0,56,0.00,,,0.00,VWS V15.00,2014-10-25 20:49:00,
2014-10-25 16:54:00,75.2,58.4,29.90,WNW,289,0.0,6.0,56,0.00,,,0.00,VWS V15.00,2014-10-25 20:54:00,
2014-10-25 16:59:00,75.3,58.5,29.90,North,351,1.0,6.0,56,0.00,,,0.00,VWS V15.00,2014-10-25 20:59:00,
2014-10-25 17:04:00,75.2,57.9,29.91,WNW,292,2.0,9.0,55,0.00,,,0.00,VWS V15.00,2014-10-25 21:04:00,
2014-10-25 17:09:00,75.0,57.2,29.90,WSW,243,0.0,9.0,54,0.00,,,0.00,VWS V15.00,2014-10-25 21:09:00,
2014-10-25 17:14:00,74.8,57.6,29.90,SW,232,2.0,6.0,55,0.00,,,0.00,VWS V15.00,2014-10-25 21:14:00,
2014-10-25 17:19:00,74.7,58.0,29.90,WNW,283,3.0,6.0,56,0.00,,,0.00,VWS V15.00,2014-10-25 21:19:00,
2014-10-25 17:24:00,74.7,58.5,29.90,WNW,284,2.0,5.0,57,0.00,,,0.00,VWS V15.00,2014-10-25 21:24:00,
2014-10-25 17:29:00,74.8,57.6,29.90,WNW,286,0.0,5.0,55,0.00,,,0.00,VWS V15.00,2014-10-25 21:29:00,
2014-10-25 17:34:00,74.7,57.5,29.90,SW,219,3.0,4.0,55,0.00,,,0.00,VWS V15.00,2014-10-25 21:34:00,
2014-10-25 17:39:00,74.5,57.3,29.90,West,275,0.0,4.0,55,0.00,,,0.00,VWS V15.00,2014-10-25 21:39:00,
2014-10-25 17:44:00,74.4,56.7,29.90,WNW,290,1.0,7.0,54,0.00,,,0.00,VWS V15.00,2014-10-25 21:44:00,
2014-10-25 17:49:00,74.2,57.0,29.91,West,281,2.0,7.0,55,0.00,,,0.00,VWS V15.00,2014-10-25 21:49:00,
2014-10-25 17:54:00,74.0,56.8,29.91,SW,222,2.0,5.0,55,0.00,,,0.00,VWS V15.00,2014-10-25 21:54:00,
2014-10-25 17:59:00,73.9,56.7,29.90,WSW,240,1.0,5.0,55,0.00,,,0.00,VWS V15.00,2014-10-25 21:59:00,
2014-10-25 18:04:00,73.5,56.4,29.90,West,275,0.0,6.0,55,0.00,,,0.00,VWS V15.00,2014-10-25 22:04:00,
2014-10-25 18:09:00,73.2,56.6,29.90,WSW,242,0.0,6.0,56,0.00,,,0.00,VWS V15.00,2014-10-25 22:09:00,
2014-10-25 18:14:00,72.8,56.7,29.90,WSW,245,0.0,1.0,57,0.00,,,0.00,VWS V15.00,2014-10-25 22:14:00,
2014-10-25 18:19:00,72.5,56.4,29.90,WSW,246,0.0,2.0,57,0.00,,,0.00,VWS V15.00,2014-10-25 22:19:00,
2014-10-25 18:24:00,72.1,56.5,29.90,WSW,242,0.0,1.0,58,0.00,,,0.00,VWS V15.00,2014-10-25 22:24:00,
2014-10-25 18:29:00,71.8,56.2,29.90,WSW,238,3.0,3.0,58,0.00,,,0.00,VWS V15.00,2014-10-25 22:29:00,
2014-10-25 18:34:00,71.5,56.4,29.90,SW,229,3.0,6.0,59,0.00,,,0.00,VWS V15.00,2014-10-25 22:34:00,
2014-10-25 18:39:00,71.3,56.2,29.90,SW,231,0.0,6.0,59,0.00,,,0.00,VWS V15.00,2014-10-25 22:39:00,
2014-10-25 18:44:00,70.9,55.9,29.90,SW,231,0.0,1.0,59,0.00,,,0.00,VWS V15.00,2014-10-25 22:44:00,
2014-10-25 18:49:00,70.6,56.1,29.90,SW,231,0.0,1.0,60,0.00,,,0.00,VWS V15.00,2014-10-25 22:49:00,
2014-10-25 18:54:00,70.3,56.2,29.90,SW,231,0.0,1.0,61,0.00,,,0.00,VWS V15.00,2014-10-25 22:54:00,
2014-10-25 18:59:00,70.1,56.0,29.90,SW,231,0.0,1.0,61,0.00,,,0.00,VWS V15.00,2014-10-25 22:59:00,
2014-10-25 19:04:00,69.8,55.8,29.90,SW,231,0.0,2.0,61,0.00,,,0.00,VWS V15.00,2014-10-25 23:04:00,
2014-10-25 19:09:00,69.6,56.0,29.90,SW,231,0.0,2.0,62,0.00,,,0.00,VWS V15.00,2014-10-25 23:09:00,
2014-10-25 19:14:00,69.3,55.7,29.90,SW,231,0.0,0.0,62,0.00,,,0.00,VWS V15.00,2014-10-25 23:14:00,
2014-10-25 19:19:00,69.1,56.0,29.90,SW,231,0.0,1.0,63,0.00,,,0.00,VWS V15.00,2014-10-25 23:19:00,
2014-10-25 19:24:00,68.8,56.1,29.90,SW,231,0.0,1.0,64,0.00,,,0.00,VWS V15.00,2014-10-25 23:24:00,
2014-10-25 19:29:00,68.6,56.0,29.90,SW,231,0.0,1.0,64,0.00,,,0.00,VWS V15.00,2014-10-25 23:29:00,
2014-10-25 19:34:00,68.4,56.2,29.90,SW,230,0.0,3.0,65,0.00,,,0.00,VWS V15.00,2014-10-25 23:34:00,